Weather in Yaroslavl

Russia / Yaroslavl Oblast     57˚37′35″N   39˚53′37″E
temp.,
°C
wind,
m/s
gust,
m/s
humid.,
%
clouds,
%
prec.,
mm/h
press.,
hPa
HPBL,
m
1 december, tue
tue100:00−1˚sse61293100 0.1 1031671
03:00−1˚s61291100 0.2 1031742
06:00−2˚s61391100 0.1 1031649
09:00−3˚s61291100 0.3 1032638
12:00−2˚s61191100 0.1 1032644
15:00−3˚s51093100 0.3 1033539
18:00−3˚s4995100 0.2 1033473
21:00−3˚ssw4896100 0.9 1034423
2 december, wed
wed200:00−4˚ssw379798 0.3 1035232
03:00−5˚ssw259795 0.4 1036146
06:00−5˚sw239797 0.1 103656
09:00−5˚ssw239698 0.1 1036105
12:00−3˚ssw2492100 0.0 1037376
15:00−3˚ssw2394100 0.1 1037255
18:00−4˚sse2395100 0.0 1037106
21:00−6˚sse2293100 0.0 103733
3 december, thu
thu300:00−6˚sse2392100 0.0 103656
03:00−7˚sse2390100 0.0 103753
06:00−8˚se3389100 0.0 103664
09:00−8˚se348999 0.0 103692
12:00−7˚se3687100 0.0 1035204
15:00−7˚se3590100 0.0 1035131
18:00−8˚se3690100 0.0 1035135
21:00−9˚se3688100 0.0 1034133
4 december, fri
fri400:00−9˚se3788100 0.0 1034176
03:00−9˚se378895 0.0 1034187
06:00−9˚se378992 0.0 1034165
09:00−9˚se378986 0.0 1035150
12:00−7˚sse478974 0.0 1035367
15:00−6˚se379279 0.1 1036305
18:00−7˚se379588 0.0 1036223
21:00−9˚se369585 0.1 1037129
5 december, sat
sat500:00−9˚se379460 0.0 1037144
03:00−10˚se368938 0.0 1038113
06:00−9˚se378867 0.0 1037145
09:00−10˚se378935 0.0 1038138
12:00−8˚se478711 0.0 1038258
15:00−8˚se37906 0.0 1039152
18:00−10˚se47890 0.0 1039134
21:00−10˚se36870 0.0 1039120